一网星座-0135星 (ONEWEB-0135 )

导读 | 星芒AI

ONEWEB-0135 是 OneWeb 卫星通信公司发射的低轨通信卫星之一,属于其全球宽带互联网星座计划。该卫星运行在约 1200 公里的近地轨道,旨在为全球用户提供高速、低延迟的互联网服务。ONEWEB-0135 采用先进通信技术,支持多频段传输,具备高容量和高可靠性,适用于偏远地区和航空、航海等移动通信场景。该卫星的发射和部署有助于完善 OneWeb 的全球网络覆盖,推动数字包容和远程通信能力的提升。

基本信息
目录编号:
47281
目录名称:
ONEWEB-0135
国际标识:
2020-100Z
轨道中心:
EARTH
卫星名称:
一网星座-0135星
卫星全名:
一网星座-0135星 (ONEWEB-0135 )
卫星状态:
在轨 (已飞行1821 天)
发射日期:
2020-12-18 UTC
国别 :
英国 (GB)
星等 :
--
轨道信息
数据来源 国际轨道数据 AOE轨道数据
星历时间 2025-12-13T04:21:56+0800
13小时前
查看轨道信息
2025-12-08T09:00:00+0800
5天前
查看轨道信息
半长轴 7592.113km 7591.862km
偏心率 0.0001437 0.0001804
轨道倾角 87.895° 87.902°
近地点辐角 87.197° 110.725°
升交点赤经 27.692° 28.640°
平近点角 272.932° 231.223°
近地点 1212.887km 1212.357km
远地点 1215.069km 1215.097km
周期 109.725分钟 109.719分钟
每日圈数 13.123775 13.124426
详细信息
平衡模式:
三轴稳定
覆盖范围:
全球
运营商:
一网卫星公司
运营商所在国:
英国
制造商(研发单位):
一网卫星公司
制造商所在国:
英国
使用方式:
暂无
卫星简介
OneWeb卫星网络由648颗重约125公斤的微型卫星组成,运行在1200公里的轨道上。 每颗卫星都能够提供至少每秒8千兆位的吞吐量,以使用其高吞吐量的Ku频段有效载荷为家庭和移动平台提供互联网接入。该卫星仍在工作。
2D轨道图
3D轨道图
轨道高度分析图
轨道倾角分析图
轨道综合分析图
查看轨道综合分析图